www.pogodaiklimat.ru

Погода и климат >> Архив погоды >> Россия >> Приморский край >> Владивосток


АРХИВ ПОГОДЫ в Владивостоке

Время (UTC), дата Ветер
(напр.,м/с)
 
Видим.   Явления Облачность Т
(С)
Тd
(С)
f
(%)
Тe
(С)
Тes
(С)
Комфортность P
(гПа)
Po
(гПа)
Тmin
(С)
Tmax
(С)
R
(мм)
R24
(мм)
S
(см)
21 15.09 ЮВ 3 50 км 6/1 600 м
[Sc Ac lent Cc]
+13.8 +12.8 94 +13 +13 по сезону 1011.9 989.6 +13.8
00 16.09 С 2 50 км ясно +15.3 +13.2 87 +15 +21 тепло 1012.7 990.5 +13.7
03 16.09 С 6-10
{12}
50 км ясно +20.2 +11.8 58 +22 +26 комфорт 1011.8 990.0
06 16.09 С 9-13
{14}
50 км 3/3 600 м
[Cu hum]
+21.5 +9.3 46 +23 +23 комфорт 1010.8 989.1
09 16.09 С 6
{13}
50 км 1/1 600 м
[Cu hum]
+20.2 +9.1 49 +21 +21 комфорт 1011.9 990.0 +21.6
12 16.09 С 4 50 км ясно +15.1 +12.0 82 +14 +14 по сезону 1014.4 992.2
15 16.09 С 5 50 км ясно +13.0 +9.7 80 +11 +11 прохладно 1016.1 993.7
18 16.09 С 6 50 км ясно +10.8 +5.8 71 +8 +8 прохладно 1017.5 994.8
21 16.09 С 5 50 км ясно +8.9 +4.1 72 +6 +6 холодно 1018.0 995.2 +8.9
00 17.09 С 5 50 км ясно +11.8 +2.6 53 +10 +12 прохладно 1018.2 995.6 +8.7
03 17.09 С 4 50 км 1/1 600 м
[Sc]
+15.7 +3.1 43 +15 +22 по сезону 1016.7 994.4
06 17.09 З 2 50 км 3/1 600 м
[Sc Cs]
+17.9 +3.6 39 +18 +24 по сезону 1014.4 992.3
09 17.09 Ю 6 50 км 6/3 600 м
[Sc Ci fib]
+14.9 +7.0 59 +13 +13 прохладно 1013.7 991.4 +18.6
12 17.09 Ю 5 50 км 4/4 600 м
[Sc]
+14.0 +9.9 76 +12 +12 по сезону 1013.1 990.8
15 17.09 Ю 9-11
{11}
50 км 8/8 600 м
[Sc]
+15.5 +11.5 77 +13 +13 по сезону 1011.4 989.2
18 17.09 Ю 7-10
{13}
50 км 9/9 600 м
[Sc]
+16.5 +14.0 85 +15 +15 тепло 1009.1 987.0
21 17.09 СЗ 9-14
{21}
50 км {дождь} 4/4 600 м
[Sc diur, vesp]
+12.9 +5.6 61 +10 +10 прохладно 1012.0 989.6 +12.9 0.0
00 18.09 С 9-14
{18}
50 км {ливн. осадки} 4/4 1000 м
[Cu med, cong]
+12.7 +0.9 44 +10 +10 прохладно 1014.1 991.6 +11.9
03 18.09 С 12-17
{19}
50 км 6/6 600 м
[Cu med, cong]
+13.1 -3.1 32 +10 +10 холодно 1014.5 992.0
06 18.09 С 10-16
{19}
50 км 6/6 600 м
[Sc diur, vesp]
+13.8 -4.8 27 +11 +11 холодно 1014.4 992.0
09 18.09 СЗ 9-14
{19}
50 км 6/6 600 м
[Sc]
+12.8 -3.7 31 +10 +10 холодно 1015.8 993.3 +13.9
12 18.09 СЗ 5
{16}
50 км ясно +11.6 -2.9 36 +10 +10 прохладно 1017.9 995.3
15 18.09 СЗ 6
{12}
50 км ясно +10.8 -1.6 42 +8 +8 холодно 1017.5 994.8
18 18.09 З 4 50 км ясно +10.8 -0.4 46 +9 +9 прохладно 1016.2 993.5
21 18.09 ЮЗ 9-14
{14}
50 км 6/6 600 м
[Sc]
+11.0 -0.1 46 +8 +8 прохладно 1015.1 992.4 +10.6
00 19.09 З 7
{15}
50 км ясно +12.4 +0.1 43 +10 +11 прохладно 1015.5 993.0
03 19.09 С 6
{11}
50 км ясно +16.2 -2.9 27 +15 +20 по сезону 1014.3 992.1
06 19.09 С 6
{10}
50 км ясно +18.0 -3.9 22 +17 +20 по сезону 1013.1 991.0
09 19.09 С 7
{13}
50 км 3/0
[Ci]
+16.9 +0.7 33 +16 +16 по сезону 1014.0 991.8 +18.1
12 19.09 С 7
{14}
50 км ясно +13.6 -2.2 33 +12 +12 по сезону 1016.1 993.7
15 19.09 С 6
{12}
50 км ясно +11.5 +1.6 51 +9 +9 прохладно 1017.6 994.9
18 19.09 С 4
{10}
50 км ясно +9.4 +1.4 57 +7 +7 прохладно 1018.5 995.7
21 19.09 С 3 50 км ясно +8.9 +2.5 64 +7 +7 холодно 1019.6 996.8 +8.9
00 20.09 С 3 50 км ясно +11.9 +0.4 45 +11 +15 по сезону 1020.3 997.6
03 20.09 СЗ 2 50 км ясно +15.6 -1.0 32 +16 +27 по сезону 1019.8 997.4
06 20.09 СЗ 2 50 км ясно +17.5 +0.9 33 +18 +24 по сезону 1018.1 995.9
09 20.09 ЮЗ 4 50 км ясно +15.0 +5.4 53 +14 +14 по сезону 1018.9 996.5 +17.7
12 20.09 Ю 3 50 км ясно +13.6 +8.0 69 +13 +13 по сезону 1018.9 997.4
15 20.09 Ю 5 50 км 6/6 600 м
[Sc]
+13.7 +10.3 80 +12 +12 по сезону 1019.6 997.1
18 20.09 Ю 8-12
{12}
50 км 8/8 600 м
[St]
+15.3 +11.9 80 +13 +13 по сезону 1018.6 996.3
21 20.09 ЮВ 5
{12}
н/о н/о +14.5 +12.5 88 +13 +13 по сезону 1019.7 997.3 +13.0
00 21.09 Ю 3 50 км 3/3 600 м
[St]
+17.1 +14.1 83 +17 +20 тепло 1020.3 998.1
03 21.09 З 2 50 км 4/4 600 м
[Cu hum]
+19.2 +10.1 56 +21 +27 комфорт 1020.1 998.0
06 21.09 С 4 50 км 6/6 600 м
[St]
+20.6 +5.3 37 +22 +23 комфорт 1019.8 997.8
09 21.09 С 4 50 км 3/1 600 м
[Cu hum Ci fib]
+18.8 +6.0 43 +19 +19 тепло 1020.8 998.7 +20.9
12 21.09 СЗ 2 50 км ясно +15.5 +9.1 66 +15 +15 тепло 1023.0 1000.6
15 21.09 С 3 50 км ясно +13.7 +8.2 69 +13 +13 по сезону 1023.7 1001.1
18 21.09 С 6 50 км ясно +10.9 +7.8 81 +8 +8 прохладно 1023.6 1000.8
21 21.09 С 6 50 км ясно +10.4 +5.9 74 +7 +7 прохладно 1025.0 1002.1 +10.3
00 22.09 С 4 50 км 1/1 600 м
[Sc]
+12.3 +7.1 71 +10 +13 по сезону 1026.2 1003.5 +10.1
03 22.09 С 5 50 км 8/1 1000 м
[Sc Ac lent Cc]
+15.5 +4.8 49 +14 +18 по сезону 1024.7 1002.2
06 22.09 С 6
{10}
50 км 8/0
[Ac lent Cc]
+16.6 +3.3 41 +16 +17 по сезону 1022.4 1000.0
09 22.09 С 6
{12}
50 км 9/0
[Ac lent Cc]
+15.2 +6.9 58 +14 +14 по сезону 1021.7 999.2 +17.0
12 22.09 С 7-11
{12}
50 км 9/0
[Ac lent Cc]
+14.2 +5.9 57 +12 +12 по сезону 1020.4 998.0
15 22.09 С 5
{11}
50 км 9/0
[Ac lent Cc]
+12.5 +6.8 68 +10 +10 по сезону 1018.8 996.2

 

Местоположение метеостанции Владивосток (Приморский край, Россия): широта 43.12 долгота 131.90 высота над уровнем моря 188 м.

В архиве по умолчанию представлена погода в Владивостоке за последнюю неделю. Архивные данные за месяц целиком и за предыдущие месяцы, начиная с января 2011 года, Вы можете получить, выбрав интересующий диапазон дат из раскрывающегося списка и нажав кнопку "Ввод!".


*Определитесь, кто Вы:
робот инопланетянин человек

Внимание! Время в таблицах - всемирное. Для получения местного времени необходимо прибавить поправку, которая равна 10 ч.

Смотрите также архив погоды в соседних городах и на ближайших метеорологических станциях:

Погода на Мысе Назимова (Приморский край, Россия) (8 км)
Погода в Барабаше (Приморский край, Россия) (42 км)
Погода в Многоудобном (Приморский край, Россия) (60 км)
Погода в Находке (Приморский край, Россия) (81 км)
Погода в Гамове (Приморский край, Россия) (84 км)
Погода в Тимирязевском (Приморский край, Россия) (85 км)
Погода в Партизанске (Приморский край, Россия) (89 км)
Погода в Посьете (Приморский край, Россия) (104 км)
Погода в Полтавке (Приморский край, Россия) (112 км)
Погода в Анучино (Приморский край, Россия) (130 км)

Пояснения к столбцам:

Ветер - указаны скорость ветра в м/с - средняя за 10 мин, порывы в срок и между сроками (в фигурных скобках) и направление, откуда дует ветер: С - северный, СВ - северо-восточный, В - восточный, ЮВ - юго-восточный, Ю - южный, ЮЗ - юго-западный, З - западный, СЗ - северо-западный.
Видимость - горизонтальная дальность видимости в метрах или километрах. При видимости от 1 до 10 км при отсутствии осадков обычно наблюдается дымка, при ухудшении видимости до 1 км и менее - туман. В сухую погоду видимость может ухудшаться дымом, пылью или мглою.
Явления - указаны атмосферные явления, наблюдавшиеся в срок или в последний час перед сроком; фигурными скобками обозначены явления, наблюдавшиеся между сроками (за 1-3 часа до срока); квадратными скобками обозначены град или гололедные отложения с указанием их диаметра в мм.
Облачность - указаны через наклонную черту общая и нижняя облачность в баллах и высота нижней границы облаков в метрах; квадратными скобками обозначены формы облаков: Ci - перистые, Cs - перисто-слоистые, Cc - перисто-кучевые, Ac - высококучевые, As - высокослоистые, Sc - слоисто-кучевые, Ns - слоисто-дождевые, Cu - кучевые, Cb - кучево-дождевые. Подробнее классификацию облаков см. в Атласе облаков (PDF).
T - Температура воздуха - температура, измеренная на высоте 2 м над землей.
Td - Температура точки росы - температура, при понижении до которой содержащийся в воздухе водяной пар достигнет насыщения.
f - Относительная влажность воздуха - влажноcть воздуха, измеренная на высоте 2 м над землей.
Te - Эффективная температура - температура, которую ощущает одетый по сезону человек в тени. Характеристика душности погоды. При расчете учитывается влияние влажности воздуха и скорости ветра на теплоощущения человека.
Tes - Эффективная температура на солнце - температура, которую ощущает человек, с поправкой на солнечный нагрев. Характеристика знойности погоды. Зависит от высоты солнца над горизонтом, облачности и скорости ветра. Ночью, в пасмурную погоду, а также при ветре 12 м/с и более поправка равна нулю.
P - Атмосферное давление - приведенное к уровню моря атмосферное давление.
Po - Атмосферное давление - измеренное на уровне метеостанции атмосферное давление.
Tmin - Минимальная температура - минимум температуры воздуха на высоте 2 м над землей.
Tmax - Максимальная температура - максимум температуры воздуха на высоте 2 м над землей.
R - Количество осадков - Количество выпавших осадков за период времени, мм. При наведении курсора мыши на число - период времени, за который выпало указанное количество осадков.
R24 - Количество осадков - Количество выпавших осадков за 24 часа, мм.
S - Снежный покров - Высота снежного покрова, см. При наведении курсора мыши на число - состояние снежного покрова и степень покрытия местности в баллах.